EW9530 Weather Reports


Display with metric or nautical units.
time (UTC)temp
F
wind
direction
speed
MPH
gust
MPH
rain 1hr
in
rain 24hr
in
rain mn
in
humidity
%
barometer
mb
20260902211656 76 90 1.0 4.0 0.00 0.00 0.00 74 1022.7
20260902210150 76 90 2.0 4.0 0.00 0.00 0.00 72 1022.7
20260902204652 77 185 2.0 5.0 0.00 0.00 0.00 72 1022.7
20260902203157 77 184 1.0 5.0 0.00 0.00 0.00 72 1022.7
20260902200151 78 155 0.0 2.0 0.00 0.00 0.00 69 1022.5
20260902194653 79 164 0.0 2.0 0.00 0.00 0.00 68 1022.2
20260902193142 79 113 0.0 3.0 0.00 0.00 0.00 67 1022.0
20260902191653 79 127 0.0 7.0 0.00 0.00 0.00 66 1021.7
20260902190153 80 175 2.0 8.0 0.00 0.00 0.00 66 1021.4
20260902184654 80 146 2.0 9.0 0.00 0.00 0.00 62 1021.2
20260902183141 81 130 2.0 10.0 0.00 0.00 0.00 60 1020.9
20260902181653 82 113 4.0 15.0 0.00 0.00 0.00 58 1020.7
20260902180152 82 202 7.0 15.0 0.00 0.00 0.00 57 1020.7
20260902174653 83 132 4.0 10.0 0.00 0.00 0.00 55 1020.5
20260902173145 84 132 5.0 13.0 0.00 0.00 0.00 52 1020.4
20260902171652 86 116 5.0 18.0 0.00 0.00 0.00 50 1020.2
20260902170152 86 177 7.0 14.0 0.00 0.00 0.00 48 1020.1
20260902164650 87 184 6.0 17.0 0.00 0.00 0.00 47 1020.1
20260902163139 88 188 9.0 16.0 0.00 0.00 0.00 45 1020.1
20260902161650 88 144 7.0 16.0 0.00 0.00 0.00 44 1020.2
20260902154652 89 178 7.0 15.0 0.00 0.00 0.00 43 1020.3
20260902153144 89 185 7.0 16.0 0.00 0.00 0.00 41 1020.3
20260902151653 90 128 9.0 14.0 0.00 0.00 0.00 40 1020.4
20260902150157 90 139 8.0 17.0 0.00 0.00 0.00 39 1020.4
20260902144650 90 157 9.0 15.0 0.00 0.00 0.00 38 1020.5
20260902143140 90 157 8.0 18.0 0.00 0.00 0.00 38 1020.6
20260902140153 91 136 8.0 17.0 0.00 0.00 0.00 36 1020.8
20260902134655 91 88 7.0 14.0 0.00 0.00 0.00 36 1020.8
20260902133143 91 173 7.0 15.0 0.00 0.00 0.00 35 1020.9
20260902131653 91 196 5.0 15.0 0.00 0.00 0.00 35 1021.0
20260902130151 91 162 6.0 15.0 0.00 0.00 0.00 35 1021.1
20260902124653 91 175 5.0 14.0 0.00 0.00 0.00 35 1021.2
20260902123145 91 115 6.0 12.0 0.00 0.00 0.00 35 1021.3
20260902121653 91 89 8.0 19.0 0.00 0.00 0.00 35 1021.3
20260902120151 91 115 6.0 12.0 0.00 0.00 0.00 37 1021.3
20260902114651 91 166 7.0 14.0 0.00 0.00 0.00 38 1021.4
20260902113143 91 146 5.0 8.0 0.00 0.00 0.00 39 1021.4
20260902111655 89 171 4.0 12.0 0.00 0.00 0.00 43 1021.5
20260902110158 89 217 2.0 8.0 0.00 0.00 0.00 46 1021.5
20260902104654 88 115 4.0 9.0 0.00 0.00 0.00 46 1021.6
20260902103139 86 223 0.0 4.0 0.00 0.00 0.00 50 1021.8
20260902101653 85 91 0.0 4.0 0.00 0.00 0.00 54 1022.0
20260902100151 84 296 0.0 4.0 0.00 0.00 0.00 57 1022.0
20260902094652 83 355 2.0 6.0 0.00 0.00 0.00 60 1022.1
20260902093139 82 360 3.0 5.0 0.00 0.00 0.00 63 1022.2
20260902091652 80 55 0.0 5.0 0.00 0.00 0.00 66 1022.2
20260902090154 79 20 1.0 6.0 0.00 0.00 0.00 69 1022.3
20260902084654 77 20 1.0 5.0 0.00 0.00 0.00 70 1022.2
20260902083142 76 32 2.0 6.0 0.00 0.00 0.00 73 1022.2
20260902081654 75 36 3.0 6.0 0.00 0.00 0.00 74 1022.2
20260902080155 73 355 2.0 8.0 0.00 0.00 0.00 77 1022.2
20260902074651 72 5 5.0 8.0 0.00 0.00 0.00 79 1022.3
20260902073141 71 5 2.0 7.0 0.00 0.00 0.00 81 1022.3
20260902071654 70 36 3.0 6.0 0.00 0.00 0.00 83 1022.3
20260902070148 69 350 3.0 6.0 0.00 0.00 0.00 85 1022.4
20260902064651 68 333 3.0 5.0 0.00 0.00 0.00 86 1022.2
20260902063145 67 17 2.0 6.0 0.00 0.00 0.00 89 1022.0
20260902060153 65 5 2.0 5.0 0.00 0.00 0.00 90 1021.8
20260902054655 65 10 2.0 5.0 0.00 0.00 0.00 90 1021.7
20260902053142 65 24 0.0 5.0 0.00 0.00 0.00 90 1021.6
20260902051654 65 20 1.0 5.0 0.00 0.00 0.00 90 1021.6
20260902044654 65 22 3.0 5.0 0.00 0.00 0.00 90 1021.2
20260902043142 66 71 2.0 6.0 0.00 0.00 0.00 90 1021.2
20260902041651 66 31 1.0 5.0 0.00 0.00 0.00 90 1021.3
20260902040151 66 20 2.0 5.0 0.00 0.00 0.00 90 1021.3
20260902034653 66 32 1.0 4.0 0.00 0.00 0.00 90 1021.3
20260902033140 66 32 1.0 4.0 0.00 0.00 0.00 89 1021.3
20260902031652 66 51 2.0 4.0 0.00 0.00 0.00 89 1021.4
20260902024656 67 43 0.0 3.0 0.00 0.00 0.00 89 1021.3
20260902023143 67 43 0.0 0.0 0.00 0.00 0.00 88 1021.4
20260902021653 67 43 1.0 6.0 0.00 0.00 0.00 88 1021.3
20260902020159 67 5 1.0 4.0 0.00 0.00 0.00 88 1021.5
20260902014651 67 38 0.0 3.0 0.00 0.00 0.00 88 1021.3
20260902013142 68 38 1.0 3.0 0.00 0.00 0.00 87 1021.4
20260902011652 68 17 0.0 3.0 0.00 0.00 0.00 87 1021.5
20260902010153 68 355 0.0 3.0 0.00 0.00 0.00 87 1021.4
20260902004651 68 30 0.0 3.0 0.00 0.00 0.00 86 1021.4
20260902003142 69 5 0.0 1.0 0.00 0.00 0.00 85 1021.6
20260902001651 69 5 1.0 3.0 0.00 0.00 0.00 86 1021.4
20260902000150 68 45 1.0 5.0 0.00 0.00 0.00 86 1021.3
20260901234650 69 31 0.0 4.0 0.00 0.00 0.00 85 1021.2
20260901233145 69 32 0.0 4.0 0.00 0.00 0.00 85 1021.1
20260901231658 69 45 0.0 3.0 0.00 0.00 0.00 85 1021.1
20260901230153 69 45 0.0 3.0 0.00 0.00 0.00 84 1021.0
20260901224653 69 45 0.0 3.0 0.00 0.00 0.00 84 1020.8
20260901223141 70 63 0.0 3.0 0.00 0.00 0.00 83 1020.6
20260901221650 70 63 0.0 1.0 0.00 0.00 0.00 81 1020.5
20260901220151 71 63 0.0 0.0 0.00 0.00 0.00 81 1020.5
20260901214651 71 63 0.0 3.0 0.00 0.00 0.00 81 1020.5
20260901213142 71 63 0.0 0.0 0.00 0.00 0.00 80 1020.4